EW4547 Weather Reports


time (UTC)temp
C
wind
direction
speed
KPH
gust
KPH
rain 1hr
cm
rain 24hr
cm
rain mn
cm
humidity
%
barometer
mb
20191123011228 11 207 0.0 0.0 0.00 0.00 0.00 80 1017.1
20191123010728 11 207 0.0 0.0 0.00 0.00 0.00 78 1016.9
20191123010228 11 207 0.0 0.0 0.00 0.00 0.00 78 1016.8
20191123004728 12 207 0.0 0.0 0.00 0.00 0.00 79 1016.8
20191123004228 12 207 0.0 0.0 0.00 0.00 0.00 78 1016.7
20191123003728 12 207 0.0 0.0 0.00 0.00 0.00 78 1016.7
20191123003229 12 207 0.0 0.0 0.00 0.00 0.00 77 1016.8
20191123001727 12 207 0.0 0.0 0.00 0.00 0.00 76 1016.8
20191123001228 12 207 0.0 0.0 0.00 0.00 0.00 76 1016.7
20191123000728 12 207 0.0 0.0 0.00 0.00 0.00 75 1016.8
20191123000228 12 207 0.0 0.0 0.00 0.00 0.00 75 1016.9
20191122234728 12 207 0.0 0.0 0.00 0.00 0.00 74 1016.9
20191122234228 12 207 0.0 0.0 0.00 0.00 0.00 74 1016.8
20191122233728 13 207 0.0 0.0 0.00 0.00 0.00 74 1016.6
20191122233228 13 207 0.0 0.0 0.00 0.00 0.00 73 1016.5
20191122231728 13 207 0.0 0.0 0.00 0.00 0.00 73 1016.5
20191122231229 13 207 0.0 0.0 0.00 0.00 0.00 73 1016.4
20191122230728 13 207 0.0 0.0 0.00 0.00 0.00 72 1016.3
20191122230229 13 207 0.0 1.6 0.00 0.00 0.00 72 1016.2
20191122224728 14 207 0.0 1.6 0.00 0.00 0.00 72 1016.2
20191122224228 14 207 0.0 1.6 0.00 0.00 0.00 72 1016.1
20191122223728 14 202 0.0 1.6 0.00 0.00 0.00 72 1016.1
20191122223228 15 202 0.0 0.0 0.00 0.00 0.00 70 1015.9
20191122221728 15 202 0.0 1.6 0.00 0.00 0.00 72 1015.6
20191122221228 15 202 0.0 1.6 0.00 0.00 0.00 71 1015.5
20191122220728 15 202 0.0 1.6 0.00 0.00 0.00 70 1015.5
20191122220228 15 202 0.0 1.6 0.00 0.00 0.00 69 1015.3
20191122214728 16 202 1.6 3.2 0.00 0.00 0.00 69 1015.1
20191122214228 16 202 1.6 3.2 0.00 0.00 0.00 68 1015.0
20191122213728 16 201 3.2 4.8 0.00 0.00 0.00 68 1014.8
20191122213228 16 225 1.6 8.0 0.00 0.00 0.00 67 1014.7
20191122211728 17 268 3.2 8.0 0.00 0.00 0.00 66 1014.5
20191122210728 17 218 6.4 11.3 0.00 0.00 0.00 66 1014.4
20191122210229 17 214 6.4 19.3 0.00 0.00 0.00 65 1014.5
20191122204728 17 207 4.8 19.3 0.00 0.00 0.00 65 1014.3
20191122204228 17 206 4.8 12.9 0.00 0.00 0.00 65 1014.4
20191122203728 17 197 3.2 11.3 0.00 0.00 0.00 64 1014.2
20191122203228 17 210 9.7 19.3 0.00 0.00 0.00 64 1014.4
20191122201728 17 224 4.8 14.5 0.00 0.00 0.00 63 1014.6
20191122201228 17 216 9.7 20.9 0.00 0.00 0.00 63 1014.6
20191122200729 17 228 1.6 11.3 0.00 0.00 0.00 64 1014.4
20191122200229 17 165 1.6 19.3 0.00 0.00 0.00 64 1014.7
20191122194728 17 224 3.2 12.9 0.00 0.00 0.00 63 1014.6
20191122194228 17 211 11.3 19.3 0.00 0.00 0.00 63 1014.6
20191122193728 17 244 11.3 20.9 0.00 0.00 0.00 62 1014.8
20191122193228 18 219 8.0 22.5 0.00 0.00 0.00 62 1014.8
20191122191728 18 213 8.0 19.3 0.00 0.00 0.00 61 1015.3
20191122191228 17 206 4.8 20.9 0.00 0.00 0.00 62 1015.2
20191122190728 17 235 4.8 16.1 0.00 0.00 0.00 62 1015.4
20191122190228 17 232 4.8 16.1 0.00 0.00 0.00 62 1015.3
20191122184728 17 208 4.8 11.3 0.00 0.00 0.00 63 1015.5
20191122184228 17 221 8.0 19.3 0.00 0.00 0.00 63 1015.6
20191122183728 17 232 6.4 11.3 0.00 0.00 0.00 63 1015.6
20191122183228 17 229 4.8 16.1 0.00 0.00 0.00 63 1015.8
20191122181728 17 217 11.3 19.3 0.00 0.00 0.00 62 1015.9
20191122181228 17 242 3.2 16.1 0.00 0.00 0.00 64 1016.0
20191122180728 16 229 4.8 11.3 0.00 0.00 0.00 65 1016.1
20191122180228 16 236 8.0 19.3 0.00 0.00 0.00 65 1016.3
20191122174728 16 237 8.0 14.5 0.00 0.00 0.00 65 1016.4
20191122174229 16 200 8.0 11.3 0.00 0.00 0.00 65 1015.9
20191122173729 16 218 3.2 11.3 0.00 0.00 0.00 66 1015.9
20191122173228 16 208 8.0 16.1 0.00 0.00 0.00 66 1016.5
20191122171228 16 142 1.6 14.5 0.00 0.00 0.00 67 1016.9
20191122170728 16 193 3.2 14.5 0.00 0.00 0.00 67 1017.7
20191122170228 16 212 6.4 20.9 0.00 0.00 0.00 66 1018.0
20191122164728 16 270 8.0 16.1 0.00 0.00 0.00 69 1018.0
20191122164228 15 237 3.2 16.1 0.00 0.00 0.00 70 1018.1
20191122163729 15 204 3.2 16.1 0.00 0.00 0.00 71 1018.0
20191122163228 14 222 4.8 16.1 0.00 0.00 0.00 71 1018.3
20191122161729 13 203 3.2 16.1 0.00 0.00 0.00 72 1018.3
20191122161228 13 204 4.8 11.3 0.00 0.00 0.00 73 1018.4
20191122160728 13 180 1.6 4.8 0.00 0.00 0.00 73 1018.5
20191122160228 13 249 3.2 19.3 0.00 0.00 0.00 73 1018.7
20191122154728 13 218 1.6 4.8 0.00 0.00 0.00 74 1019.1
20191122154229 13 239 3.2 19.3 0.00 0.00 0.00 73 1019.2
20191122153728 12 263 3.2 12.9 0.00 0.00 0.00 74 1018.9
20191122153229 12 266 4.8 12.9 0.00 0.00 0.00 73 1018.8
20191122151728 12 216 6.4 12.9 0.00 0.00 0.00 74 1019.4
20191122151228 12 253 3.2 8.0 0.00 0.00 0.00 74 1019.4
20191122150728 12 248 3.2 14.5 0.00 0.00 0.00 74 1019.3
20191122150228 12 222 1.6 12.9 0.00 0.00 0.00 74 1019.1
20191122144728 12 214 3.2 12.9 0.00 0.00 0.00 74 1018.9
20191122144228 12 200 4.8 11.3 0.00 0.00 0.00 74 1019.0
20191122143728 12 216 4.8 19.3 0.00 0.00 0.00 74 1019.0
20191122143229 12 205 4.8 16.1 0.00 0.00 0.00 74 1019.1
20191122141728 12 213 6.4 16.1 0.00 0.00 0.00 75 1019.1
20191122141228 12 186 8.0 16.1 0.00 0.00 0.00 75 1019.1
20191122140729 12 179 3.2 16.1 0.00 0.00 0.00 76 1018.9
20191122140228 12 223 8.0 19.3 0.00 0.00 0.00 75 1018.9
20191122134728 11 277 8.0 19.3 0.00 0.00 0.00 76 1018.9
20191122134228 11 235 3.2 12.9 0.00 0.00 0.00 77 1019.0
20191122133728 11 229 4.8 12.9 0.00 0.00 0.00 77 1018.9
20191122133228 11 216 8.0 16.1 0.00 0.00 0.00 77 1018.9
20191122131729 10 180 4.8 19.3 0.00 0.00 0.00 79 1018.9
20191122131228 10 239 3.2 9.7 0.00 0.00 0.00 80 1019.0
20191122130728 10 199 4.8 11.3 0.00 0.00 0.00 80 1018.9
20191122130228 10 244 3.2 12.9 0.00 0.00 0.00 80 1018.9
20191122124728 10 198 1.6 11.3 0.00 0.00 0.00 80 1018.9
20191122124229 10 250 3.2 8.0 0.00 0.00 0.00 80 1018.9
20191122123728 10 222 4.8 14.5 0.00 0.00 0.00 80 1018.8
20191122123228 10 159 1.6 14.5 0.00 0.00 0.00 80 1018.9
20191122121728 10 202 3.2 11.3 0.00 0.00 0.00 80 1018.8
20191122121228 10 223 4.8 12.9 0.00 0.00 0.00 80 1018.9
20191122120729 10 197 4.8 14.5 0.00 0.00 0.00 80 1018.8
20191122114729 10 224 6.4 16.1 0.00 0.00 0.00 79 1018.8
20191122114228 10 221 6.4 19.3 0.00 0.00 0.00 79 1018.7
20191122113728 10 224 3.2 11.3 0.00 0.00 0.00 79 1018.8
20191122113229 10 231 4.8 14.5 0.00 0.00 0.00 79 1018.7
20191122111728 10 222 3.2 9.7 0.00 0.00 0.00 79 1018.9
20191122111228 11 183 3.2 12.9 0.00 0.00 0.00 79 1018.9
20191122110728 11 224 4.8 9.7 0.00 0.00 0.00 79 1018.8
20191122110228 10 217 8.0 19.3 0.00 0.00 0.00 79 1018.8
20191122104729 10 229 1.6 8.0 0.00 0.00 0.00 80 1019.2
20191122104228 10 193 4.8 14.5 0.00 0.00 0.00 80 1019.2
20191122103728 10 215 4.8 9.7 0.00 0.00 0.00 80 1019.2
20191122103228 10 201 4.8 12.9 0.00 0.00 0.00 80 1019.2
20191122101729 10 220 4.8 8.0 0.00 0.00 0.00 80 1019.2
20191122100730 10 209 3.2 9.7 0.00 0.00 0.00 81 1019.3
20191122100229 10 216 3.2 11.3 0.00 0.00 0.00 81 1019.2
20191122094729 9 239 1.6 8.0 0.00 0.00 0.00 81 1019.3
20191122094228 9 232 3.2 4.8 0.00 0.00 0.00 82 1019.4
20191122093728 9 219 3.2 9.7 0.00 0.00 0.00 82 1019.4
20191122093228 9 220 1.6 9.7 0.00 0.00 0.00 82 1019.5
20191122091728 8 192 0.0 3.2 0.00 0.00 0.00 82 1019.4
20191122091229 8 208 0.0 1.6 0.00 0.00 0.00 81 1019.5
20191122090728 8 206 0.0 1.6 0.00 0.00 0.00 81 1019.7
20191122090229 8 206 0.0 1.6 0.00 0.00 0.00 81 1019.7
20191122084728 8 206 0.0 1.6 0.00 0.00 0.00 80 1019.6
20191122084229 8 206 0.0 1.6 0.00 0.00 0.00 81 1019.6
20191122083728 8 273 0.0 1.6 0.00 0.00 0.00 80 1019.6
20191122083229 8 192 0.0 1.6 0.00 0.00 0.00 81 1019.8
20191122081729 8 212 0.0 3.2 0.00 0.00 0.00 81 1019.9
20191122081229 7 212 1.6 3.2 0.00 0.00 0.00 82 1020.1
20191122080728 7 217 1.6 4.8 0.00 0.00 0.00 82 1020.0
20191122080228 7 257 0.0 4.8 0.00 0.00 0.00 81 1020.0
20191122074728 7 196 1.6 3.2 0.00 0.00 0.00 82 1020.2
20191122074229 7 204 0.0 1.6 0.00 0.00 0.00 81 1020.2
20191122073728 6 204 1.6 4.8 0.00 0.00 0.00 81 1020.3
20191122073229 6 209 0.0 1.6 0.00 0.00 0.00 80 1020.4
20191122071729 6 180 0.0 3.2 0.00 0.00 0.00 80 1020.5
20191122071228 6 218 0.0 3.2 0.00 0.00 0.00 79 1020.5
20191122070728 6 238 0.0 1.6 0.00 0.00 0.00 78 1020.4
20191122070228 6 243 0.0 1.6 0.00 0.00 0.00 78 1020.5
20191122064729 6 243 0.0 0.0 0.00 0.00 0.00 77 1020.6
20191122064228 6 243 0.0 0.0 0.00 0.00 0.00 77 1020.6
20191122063729 6 243 0.0 0.0 0.00 0.00 0.00 77 1020.8
20191122063228 6 243 0.0 1.6 0.00 0.00 0.00 77 1020.8
20191122061728 7 243 0.0 0.0 0.00 0.00 0.00 77 1021.0
20191122061228 7 243 0.0 0.0 0.00 0.00 0.00 77 1021.1
20191122060729 7 243 0.0 0.0 0.00 0.00 0.00 77 1021.1
20191122060228 7 243 0.0 1.6 0.00 0.00 0.00 77 1021.1
20191122054728 7 246 0.0 1.6 0.00 0.00 0.00 77 1021.2
20191122054229 7 246 0.0 1.6 0.00 0.00 0.00 78 1021.3
20191122053729 7 246 0.0 1.6 0.00 0.00 0.00 78 1021.5
20191122053228 7 247 1.6 4.8 0.00 0.00 0.00 78 1021.5
20191122051728 7 249 0.0 3.2 0.00 0.00 0.00 78 1021.5
20191122051229 7 221 0.0 3.2 0.00 0.00 0.00 78 1021.5
20191122050728 6 225 0.0 1.6 0.00 0.00 0.00 77 1021.4
20191122050228 6 225 0.0 4.8 0.00 0.00 0.00 77 1021.6
20191122044729 6 173 0.0 3.2 0.00 0.00 0.00 77 1021.8
20191122044228 6 161 0.0 1.6 0.00 0.00 0.00 77 1021.8
20191122043728 6 162 0.0 1.6 0.00 0.00 0.00 76 1021.8
20191122043228 6 162 0.0 1.6 0.00 0.00 0.00 76 1021.8
20191122041729 6 161 0.0 1.6 0.00 0.00 0.00 75 1022.0
20191122041228 6 161 0.0 1.6 0.00 0.00 0.00 75 1022.1
20191122040729 7 161 0.0 0.0 0.00 0.00 0.00 75 1022.1
20191122040228 7 161 0.0 1.6 0.00 0.00 0.00 75 1022.3
20191122034728 7 117 0.0 1.6 0.00 0.00 0.00 75 1022.4
20191122034229 7 117 0.0 0.0 0.00 0.00 0.00 75 1022.5
20191122033728 7 117 0.0 1.6 0.00 0.00 0.00 75 1022.6
20191122033229 7 117 0.0 1.6 0.00 0.00 0.00 75 1022.6
20191122031729 7 118 0.0 3.2 0.00 0.00 0.00 75 1022.8
20191122031229 7 229 0.0 1.6 0.00 0.00 0.00 75 1022.8
20191122030729 7 229 0.0 1.6 0.00 0.00 0.00 75 1022.9
20191122030228 7 229 0.0 1.6 0.00 0.00 0.00 74 1022.9
20191122024729 7 240 0.0 1.6 0.00 0.00 0.00 74 1022.9
20191122024228 7 241 0.0 4.8 0.00 0.00 0.00 74 1022.8
20191122023729 7 167 0.0 1.6 0.00 0.00 0.00 73 1023.0
20191122023229 7 167 0.0 0.0 0.00 0.00 0.00 73 1023.1
20191122021728 8 167 0.0 0.0 0.00 0.00 0.00 73 1023.3
20191122021229 8 167 0.0 0.0 0.00 0.00 0.00 72 1023.3
20191122020728 8 167 0.0 0.0 0.00 0.00 0.00 72 1023.4
20191122020229 8 167 0.0 3.2 0.00 0.00 0.00 72 1023.4
20191122014729 8 160 0.0 1.6 0.00 0.00 0.00 72 1023.3
20191122014228 8 161 0.0 0.0 0.00 0.00 0.00 72 1023.4
20191122013729 8 161 0.0 0.0 0.00 0.00 0.00 72 1023.4
20191122013228 8 161 0.0 1.6 0.00 0.00 0.00 72 1023.4
20191122011729 8 161 0.0 0.0 0.00 0.00 0.00 72 1023.9